User: anonymous
Location: Morehead State University
(38.1872°N, 83.4339°W)
Time: 01:40:45
(UTC-04:00)
Language:

Okean 2 - Orbit

View from above orbital plane
View from above orbital plane
View from above satellite
View from above satellite

Ground track
Ground track

The orbit data is extracted from the following two-line orbital elements,

1 20510U 90018A   14259.72754635  .00002901  00000-0  25474-3 0  8206
2 20510 082.5159 054.6474 0014323 128.1371 000.1953 14.96191257331062
Epoch (UTC): 16 September 2014 17:27:40
Eccentricity: 0.0014323
inclination: 82.5159°
perigee height: 569 km
apogee height: 588 km
right ascension of ascending node: 54.6474°
argument of perigee: 128.1371°
revolutions per day: 14.96191257
mean anomaly at epoch: 0.1953°
orbit number at epoch: 33106

The dashed part of the orbit path shows where the satellite is in the earth's shadow,  

DLR